Weather WX

World > North America > United States > Illinois

Cottagegrove, Illinois Regional Weather

Lat: 37.81N, Lon: 88.44W
Wx Zone: ILZ086
Warning FLW WEATHER ALERT - (More Info. Click Here) Warning
Feedback

Cottagegrove, IL Regional Weather

Expires:201906242000;;013733
ASUS43 KLOT 241909
RWRIL 

ILLINOIS REGIONAL WEATHER ROUNDUP
NATIONAL WEATHER SERVICE CHICAGO/ROMEOVILLE IL
200 PM CDT MON JUN 24 2019

NOTE: "FAIR" INDICATES FEW OR NO CLOUDS BELOW 12,000 FEET WITH NO
SIGNIFICANT WEATHER AND/OR OBSTRUCTIONS TO VISIBILITY.

* THESE STATIONS ARE NOT UNDER NWS QUALITY CONTROL. THEY ALSO MAY NOT
  REPORT WEATHER SUCH AS PRECIPITATION OR FOG.


ILZ064>066-069>071-074>076-080>082-084>086-088>090-092>094-242000-
SOUTH-CENTRAL ILLINOIS
  
CITY           SKY/WX    TMP DP  RH WIND       PRES   REMARKS
CARBONDALE     FAIR      81  67  62 W10       29.79R HX  83           
CAIRO*         PTSUNNY   80  67  63 SW10      29.81F HX  82           
EFFINGHAM*     PTSUNNY   76  70  82 SW12      29.76S                  
MARION         MOSUNNY   79  70  73 SW12      29.80R HX  81           
MT. VERNON     PTSUNNY  N/A N/A N/A SW14G24   29.77S                  
CENTRALIA*     PTSUNNY   79  70  73 W14G20    29.77R HX  82           
SALEM*         CLOUDY    80  69  69 W17       29.77R HX  82           
METROPOLIS*    FAIR      82  66  60 W13       29.82S HX  84           
$$


SKY/WX - Weather  TMP - Temperature  DP - Dew Point  RH - Relative Humidity
WIND - Wind Direction/Speed PRES - Barometric Pressure VSB - Visibility
WCI - Wind Chill Index E13G22 Wind - East Wind 13 mph/Gusts of 22 mph